K5KTF-WX Weather Reports


time (UTC)temp
C
wind
direction
speed
KPH
gust
KPH
rain 1hr
cm
rain 24hr
cm
rain mn
cm
humidity
%
barometer
mb
20260506081600 23 0 0.0 6.4 0.00 0.00 0.00 92 1007.7
20260506073039 23 277 1.6 9.7 0.00 0.00 0.00 91 1008.2
20260506071542 23 207 1.6 17.7 0.00 0.00 0.00 91 1008.3
20260506061544 23 119 0.0 12.9 0.00 0.00 0.00 91 1008.1
20260506044546 23 130 1.6 8.0 0.00 0.00 0.00 92 1008.3
20260506043043 23 0 0.0 11.3 0.00 0.00 0.00 91 1008.1
20260506041541 23 294 3.2 12.9 0.00 0.00 0.00 91 1008.2
20260506040039 23 0 0.0 3.2 0.00 0.00 0.00 91 1008.0
20260506034547 23 0 0.0 11.3 0.00 0.00 0.00 90 1007.7
20260506033037 23 126 0.0 8.0 0.00 0.00 0.00 89 1007.6
20260506031544 23 212 0.0 4.8 0.00 0.00 0.00 88 1007.5
20260506030040 24 0 0.0 3.2 0.00 0.00 0.00 87 1007.4
20260506024543 24 0 0.0 9.7 0.00 0.00 0.00 86 1007.2
20260506023036 24 0 0.0 1.6 0.00 0.00 0.00 85 1006.8
20260506021540 25 0 0.0 6.4 0.00 0.00 0.00 85 1006.6
20260506020038 25 0 0.0 3.2 0.00 0.00 0.00 84 1006.4
20260506014537 25 196 0.0 4.8 0.00 0.00 0.00 83 1006.0
20260506013040 25 188 0.0 3.2 0.00 0.00 0.00 82 1006.0
20260506011544 25 0 0.0 1.6 0.00 0.00 0.00 81 1006.0
20260506010053 26 0 0.0 1.6 0.00 0.00 0.00 79 1006.0
20260506004538 26 0 0.0 1.6 0.00 0.00 0.00 78 1006.0
20260506003037 27 0 0.0 3.2 0.00 0.00 0.00 77 1006.0
20260506001536 27 0 0.0 4.8 0.00 0.00 0.00 76 1006.1
20260506000035 27 92 0.0 9.7 0.00 0.00 0.00 75 1006.0
20260505234539 27 0 0.0 9.7 0.00 0.00 0.00 74 1006.0
20260505233045 27 0 1.6 11.3 0.00 0.00 0.00 73 1005.8
20260505231537 28 112 1.6 11.3 0.00 0.00 0.00 73 1005.6
20260505230041 28 0 0.0 9.7 0.00 0.00 0.00 73 1005.5
20260505224544 28 172 1.6 11.3 0.00 0.00 0.00 71 1005.5
20260505223041 28 185 1.6 9.7 0.00 0.00 0.00 70 1005.4
20260505221538 28 82 1.6 11.3 0.00 0.00 0.00 69 1005.3
20260505220045 28 183 0.0 12.9 0.00 0.00 0.00 69 1005.5
20260505214539 29 0 0.0 11.3 0.00 0.00 0.00 69 1005.7
20260505213039 30 149 1.6 11.3 0.00 0.00 0.00 68 1005.9
20260505211537 30 0 1.6 11.3 0.00 0.00 0.00 68 1006.0
20260505210036 30 182 1.6 12.9 0.00 0.00 0.00 67 1006.2
20260505204544 30 0 0.0 14.5 0.00 0.00 0.00 68 1006.2
20260505203041 30 281 1.6 12.9 0.00 0.00 0.00 68 1006.3
20260505201550 30 300 3.2 19.3 0.00 0.00 0.00 69 1006.7
20260505200038 30 276 0.0 9.7 0.00 0.00 0.00 68 1007.1
20260505194539 29 148 0.0 12.9 0.00 0.00 0.00 69 1007.2
20260505193036 28 155 0.0 11.3 0.00 0.00 0.00 71 1007.4
20260505191537 28 0 1.6 11.3 0.00 0.00 0.00 70 1007.5
20260505190050 28 281 1.6 9.7 0.00 0.00 0.00 72 1007.7
20260505184543 27 148 0.0 14.5 0.00 0.00 0.00 73 1007.9
20260505183059 27 250 3.2 12.9 0.00 0.00 0.00 74 1008.1
20260505181537 26 0 3.2 16.1 0.00 0.00 0.00 76 1008.1
20260505180037 25 0 1.6 14.5 0.00 0.00 0.00 78 1008.3
20260505174539 25 0 0.0 9.7 0.00 0.00 0.00 79 1008.6
20260505173048 25 223 0.0 11.3 0.00 0.00 0.00 81 1008.6
20260505171545 23 0 0.0 8.0 0.00 0.00 0.00 83 1008.8
20260505170038 23 232 0.0 6.4 0.00 0.00 0.00 84 1008.8
20260505164535 23 0 0.0 11.3 0.00 0.00 0.00 86 1008.8
20260505163041 22 146 0.0 11.3 0.00 0.00 0.00 87 1008.8
20260505161541 22 220 1.6 9.7 0.00 0.00 0.00 88 1008.7
20260505153038 21 119 0.0 1.6 0.00 0.00 0.00 91 1008.8
20260505151540 21 271 0.0 8.0 0.00 0.00 0.00 91 1008.8
20260505124544 20 0 0.0 8.0 0.00 0.00 0.00 92 1007.6
20260505123041 20 173 0.0 9.7 0.00 0.00 0.00 92 1007.4
20260505121540 20 0 0.0 8.0 0.00 0.00 0.00 92 1007.1
20260505120059 20 190 1.6 12.9 0.00 0.00 0.00 92 1006.9
20260505114538 20 0 0.0 11.3 0.00 0.00 0.00 92 1006.7
20260505113043 20 0 0.0 11.3 0.00 0.00 0.00 92 1006.8
20260505111540 20 186 1.6 12.9 0.00 0.00 0.00 92 1006.7
20260505101542 20 192 0.0 8.0 0.00 0.00 0.00 91 1006.9
20260505100041 20 0 0.0 8.0 0.00 0.00 0.00 91 1007.2
20260505094538 20 278 0.0 16.1 0.00 0.00 0.00 91 1007.2
20260505093041 20 190 1.6 9.7 0.00 0.00 0.00 91 1007.2
20260505091536 20 241 0.0 9.7 0.00 0.00 0.00 91 1007.2
20260505090044 20 140 3.2 9.7 0.00 0.00 0.00 91 1007.4
20260505084541 20 171 1.6 9.7 0.00 0.00 0.00 90 1007.4
20260505083039 20 0 1.6 16.1 0.00 0.00 0.00 90 1007.6